GW0175 Weather Reports


time (UTC)temp
C
wind
direction
speed
KPH
gust
KPH
rain 1hr
cm
rain 24hr
cm
rain mn
cm
humidity
%
barometer
mb
20260509154331 24 169 6.4 16.1 0.00 0.00 0.00 32 1010.6
20260509153828 24 178 6.4 11.3 0.00 0.00 0.00 33 1010.4
20260509153324 23 165 9.7 17.7 0.00 0.00 0.00 34 1010.7
20260509152822 23 196 8.0 14.5 0.00 0.00 0.00 34 1010.7
20260509152317 23 191 4.8 11.3 0.00 0.00 0.00 34 1010.7
20260509151815 23 134 11.3 19.3 0.00 0.00 0.00 35 1010.7
20260509151311 23 194 8.0 12.9 0.00 0.00 0.00 35 1010.7
20260509150810 22 166 9.7 14.5 0.00 0.00 0.00 36 1011.0
20260509150307 22 173 4.8 11.3 0.00 0.00 0.00 38 1010.7
20260509145804 22 174 8.0 14.5 0.00 0.00 0.00 38 1010.7
20260509145306 22 177 8.0 11.3 0.00 0.00 0.00 38 1010.8
20260509144800 21 197 8.0 16.1 0.00 0.00 0.00 39 1010.8
20260509144257 21 163 9.7 11.3 0.00 0.00 0.00 41 1010.9
20260509143754 20 201 0.0 11.3 0.00 0.00 0.00 42 1010.7
20260509143252 20 173 8.0 12.9 0.00 0.00 0.00 43 1010.9
20260509142747 20 176 3.2 12.9 0.00 0.00 0.00 44 1011.0
20260509142244 19 155 8.0 14.5 0.00 0.00 0.00 44 1010.9
20260509141739 19 181 8.0 11.3 0.00 0.00 0.00 46 1010.9
20260509141237 19 151 3.2 4.8 0.00 0.00 0.00 47 1011.0
20260509140733 18 165 6.4 6.4 0.00 0.00 0.00 48 1011.0
20260509140231 18 157 1.6 6.4 0.00 0.00 0.00 49 1010.9
20260509135728 18 131 0.0 4.8 0.00 0.00 0.00 48 1011.2
20260509135226 18 152 3.2 4.8 0.00 0.00 0.00 48 1011.0
20260509134722 18 157 3.2 4.8 0.00 0.00 0.00 48 1011.0
20260509134220 18 90 1.6 4.8 0.00 0.00 0.00 48 1010.9
20260509133717 17 106 4.8 6.4 0.00 0.00 0.00 50 1011.0
20260509133214 17 106 0.0 4.8 0.00 0.00 0.00 52 1011.1
20260509132713 16 81 0.0 6.4 0.00 0.00 0.00 55 1010.8
20260509132211 15 51 3.2 6.4 0.00 0.00 0.00 58 1010.9
20260509131707 15 106 3.2 8.0 0.00 0.00 0.00 59 1011.0
20260509131204 15 135 6.4 6.4 0.00 0.00 0.00 58 1010.7
20260509130659 15 90 0.0 4.8 0.00 0.00 0.00 58 1010.7
20260509130156 15 108 4.8 4.8 0.00 0.00 0.00 60 1010.6
20260509125652 15 109 1.6 4.8 0.00 0.00 0.00 60 1010.3
20260509125149 13 132 0.0 3.2 0.00 0.00 0.00 60 1009.9
20260509124646 13 168 3.2 4.8 0.00 0.00 0.00 60 1009.7
20260509124142 13 243 0.0 3.2 0.00 0.00 0.00 61 1009.6
20260509123640 13 232 3.2 4.8 0.00 0.00 0.00 62 1009.5
20260509123137 13 251 4.8 6.4 0.00 0.00 0.00 61 1009.2
20260509122633 12 246 4.8 6.4 0.00 0.00 0.00 61 1009.4
20260509122130 12 245 4.8 6.4 0.00 0.00 0.00 63 1009.2
20260509121626 12 168 1.6 4.8 0.00 0.00 0.00 65 1009.2
20260509121125 11 221 3.2 4.8 0.00 0.00 0.00 67 1009.6
20260509120622 12 240 3.2 4.8 0.00 0.00 0.00 66 1009.7
20260509120120 12 165 0.0 1.6 0.00 0.00 0.00 66 1009.6
20260509115617 12 151 0.0 0.0 0.00 0.00 0.00 66 1009.4
20260509115115 12 151 0.0 0.0 0.00 0.00 0.00 66 1009.2
20260509114613 12 151 0.0 0.0 0.00 0.00 0.00 65 1009.1
20260509114112 12 151 0.0 3.2 0.00 0.00 0.00 64 1009.6
20260509113609 12 254 0.0 0.0 0.00 0.00 0.00 64 1009.5
20260509113107 12 164 0.0 3.2 0.00 0.00 0.00 64 1009.1
20260509112603 12 180 0.0 0.0 0.00 0.00 0.00 64 1009.4
20260509112100 12 169 0.0 1.6 0.00 0.00 0.00 64 1009.1
20260509111557 11 96 0.0 0.0 0.00 0.00 0.00 64 1009.1
20260509111054 12 90 0.0 3.2 0.00 0.00 0.00 63 1009.1
20260509110551 12 99 0.0 1.6 0.00 0.00 0.00 61 1008.9
20260509110048 12 74 0.0 4.8 0.00 0.00 0.00 60 1009.4
20260509105546 12 41 0.0 3.2 0.00 0.00 0.00 59 1009.4
20260509105044 12 300 0.0 0.0 0.00 0.00 0.00 60 1009.0
20260509104540 12 18 0.0 0.0 0.00 0.00 0.00 60 1009.0
20260509104037 12 352 0.0 0.0 0.00 0.00 0.00 62 1009.1
20260509103535 12 74 0.0 3.2 0.00 0.00 0.00 60 1009.2
20260509103033 12 117 0.0 1.6 0.00 0.00 0.00 59 1009.1
20260509102530 13 229 0.0 0.0 0.00 0.00 0.00 58 1009.1
20260509102027 13 270 0.0 3.2 0.00 0.00 0.00 57 1009.0
20260509101523 12 35 1.6 6.4 0.00 0.00 0.00 59 1009.1
20260509101020 13 22 3.2 3.2 0.00 0.00 0.00 57 1009.1
20260509100517 13 261 0.0 0.0 0.00 0.00 0.00 56 1009.0
20260509100015 12 0 0.0 1.6 0.00 0.00 0.00 56 1009.1
20260509095511 12 26 1.6 4.8 0.00 0.00 0.00 58 1009.2
20260509095009 13 77 0.0 4.8 0.00 0.00 0.00 57 1009.1
20260509094505 13 357 3.2 6.4 0.00 0.00 0.00 56 1009.2
20260509094002 13 82 0.0 1.6 0.00 0.00 0.00 55 1009.0
20260509093500 13 97 0.0 1.6 0.00 0.00 0.00 55 1009.0
20260509092957 12 311 4.8 4.8 0.00 0.00 0.00 57 1009.1
20260509092455 13 23 0.0 1.6 0.00 0.00 0.00 54 1008.9
20260509091954 12 49 0.0 6.4 0.00 0.00 0.00 57 1009.0
20260509091450 13 14 3.2 4.8 0.00 0.00 0.00 54 1008.9
20260509090947 14 41 0.0 3.2 0.00 0.00 0.00 51 1008.8
20260509090445 13 0 1.6 4.8 0.00 0.00 0.00 52 1009.1
20260509085942 13 7 0.0 4.8 0.00 0.00 0.00 52 1008.8
20260509085439 13 57 3.2 6.4 0.00 0.00 0.00 53 1009.1
20260509084935 15 72 4.8 4.8 0.00 0.00 0.00 47 1008.9
20260509084432 15 234 1.6 3.2 0.00 0.00 0.00 47 1009.1
20260509083930 15 198 0.0 3.2 0.00 0.00 0.00 49 1009.1
20260509083426 15 111 0.0 1.6 0.00 0.00 0.00 48 1008.9
20260509082923 15 277 1.6 4.8 0.00 0.00 0.00 47 1009.0
20260509082421 16 212 0.0 6.4 0.00 0.00 0.00 44 1009.0
20260509081917 16 187 0.0 3.2 0.00 0.00 0.00 40 1009.1
20260509081415 16 277 0.0 0.0 0.00 0.00 0.00 42 1009.0
20260509080912 16 225 0.0 4.8 0.00 0.00 0.00 44 1008.9
20260509080410 15 19 0.0 3.2 0.00 0.00 0.00 45 1009.0
20260509075908 16 342 4.8 9.7 0.00 0.00 0.00 43 1009.0
20260509075404 16 2 6.4 8.0 0.00 0.00 0.00 42 1009.0
20260509074902 16 348 4.8 9.7 0.00 0.00 0.00 42 1009.0
20260509074400 17 354 9.7 11.3 0.00 0.00 0.00 39 1008.9
20260509073855 16 2 6.4 6.4 0.00 0.00 0.00 43 1008.8
20260509073352 15 7 0.0 11.3 0.00 0.00 0.00 44 1009.4
20260509072849 16 3 8.0 8.0 0.00 0.00 0.00 42 1009.1
20260509072345 15 90 0.0 1.6 0.00 0.00 0.00 44 1009.2
20260509071842 16 109 4.8 4.8 0.00 0.00 0.00 44 1008.9
20260509071339 16 109 1.6 8.0 0.00 0.00 0.00 44 1009.2
20260509070836 16 81 0.0 4.8 0.00 0.00 0.00 44 1009.2
20260509070333 17 26 4.8 6.4 0.00 0.00 0.00 41 1009.0
20260509065829 17 49 4.8 8.0 0.00 0.00 0.00 41 1009.0
20260509065325 17 46 8.0 8.0 0.00 0.00 0.00 41 1008.8
20260509064821 17 36 4.8 4.8 0.00 0.00 0.00 39 1008.9
20260509064319 16 29 16.1 35.4 0.00 0.00 0.00 43 1008.7
20260509063817 16 66 8.0 8.0 0.00 0.00 0.00 42 1008.5
20260509063313 17 270 0.0 3.2 0.00 0.00 0.00 37 1008.4
20260509062810 18 301 3.2 4.8 0.00 0.00 0.00 36 1008.6
20260509062308 18 295 3.2 4.8 0.00 0.00 0.00 35 1008.6
20260509061804 18 0 0.0 4.8 0.00 0.00 0.00 35 1008.4
20260509061302 18 213 3.2 8.0 0.00 0.00 0.00 35 1008.4
20260509060759 18 292 4.8 6.4 0.00 0.00 0.00 34 1008.5
20260509060255 19 270 0.0 3.2 0.00 0.00 0.00 34 1008.5
20260509055751 19 285 0.0 3.2 0.00 0.00 0.00 33 1008.5
20260509055247 20 293 3.2 9.7 0.00 0.00 0.00 32 1008.4
20260509054744 20 285 6.4 9.7 0.00 0.00 0.00 32 1008.7
20260509054241 20 264 1.6 4.8 0.00 0.00 0.00 32 1008.6
20260509053739 20 352 0.0 4.8 0.00 0.00 0.00 32 1008.6
20260509053236 18 243 1.6 3.2 0.00 0.00 0.00 35 1008.8
20260509052734 18 110 3.2 4.8 0.00 0.00 0.00 37 1008.6
20260509052231 20 102 0.0 4.8 0.00 0.00 0.00 30 1008.6
20260509051729 21 225 4.8 8.0 0.00 0.00 0.00 30 1008.6
20260509051227 20 292 3.2 6.4 0.00 0.00 0.00 30 1008.6
20260509050723 20 279 3.2 6.4 0.00 0.00 0.00 30 1008.4
20260509050219 20 254 1.6 6.4 0.00 0.00 0.00 31 1008.4
20260509045717 20 285 1.6 4.8 0.00 0.00 0.00 33 1008.5
20260509045214 19 290 3.2 4.8 0.00 0.00 0.00 35 1008.7
20260509044711 19 278 1.6 4.8 0.00 0.00 0.00 36 1008.5
20260509044209 19 270 0.0 4.8 0.00 0.00 0.00 37 1008.6
20260509043705 18 279 0.0 4.8 0.00 0.00 0.00 40 1008.6
20260509043201 19 277 1.6 4.8 0.00 0.00 0.00 37 1008.7
20260509042657 19 290 3.2 4.8 0.00 0.00 0.00 37 1008.8
20260509042153 20 286 1.6 6.4 0.00 0.00 0.00 36 1008.6
20260509041650 20 292 3.2 4.8 0.00 0.00 0.00 34 1008.7
20260509041148 20 264 0.0 4.8 0.00 0.00 0.00 33 1008.4
20260509040646 21 243 3.2 4.8 0.00 0.00 0.00 31 1008.6
20260509040142 21 249 1.6 4.8 0.00 0.00 0.00 32 1008.6
20260509035639 21 255 1.6 4.8 0.00 0.00 0.00 32 1008.7
20260509035136 21 233 3.2 3.2 0.00 0.00 0.00 32 1008.6
20260509034634 21 240 0.0 3.2 0.00 0.00 0.00 33 1008.6
20260509034130 21 180 0.0 4.8 0.00 0.00 0.00 35 1008.5
20260509033627 21 243 0.0 3.2 0.00 0.00 0.00 38 1008.5
20260509033124 21 286 0.0 1.6 0.00 0.00 0.00 40 1008.4
20260509032622 21 250 3.2 3.2 0.00 0.00 0.00 38 1008.3
20260509032118 21 257 3.2 4.8 0.00 0.00 0.00 36 1008.4
20260509031617 21 233 3.2 3.2 0.00 0.00 0.00 31 1008.2
20260509031114 23 154 3.2 8.0 0.00 0.00 0.00 27 1008.2
20260509030612 24 194 4.8 6.4 0.00 0.00 0.00 24 1007.9
20260509030108 23 162 3.2 4.8 0.00 0.00 0.00 24 1007.8
20260509025604 23 192 0.0 4.8 0.00 0.00 0.00 26 1007.8
20260509025100 23 215 0.0 3.2 0.00 0.00 0.00 26 1007.7
20260509024556 23 220 3.2 3.2 0.00 0.00 0.00 28 1007.8
20260509024052 23 220 3.2 4.8 0.00 0.00 0.00 27 1007.8
20260509023550 25 90 0.0 0.0 0.00 0.00 0.00 23 1007.5
20260509023047 25 90 0.0 1.6 0.00 0.00 0.00 23 1007.5
20260509022543 25 90 0.0 0.0 0.00 0.00 0.00 22 1007.5
20260509022041 25 90 0.0 1.6 0.00 0.00 0.00 22 1007.4
20260509021538 25 90 0.0 0.0 0.00 0.00 0.00 21 1007.3
20260509021035 25 83 0.0 1.6 0.00 0.00 0.00 22 1007.5
20260509020533 25 106 0.0 3.2 0.00 0.00 0.00 23 1007.1
20260509020030 25 81 0.0 0.0 0.00 0.00 0.00 24 1007.3
20260509015529 26 81 0.0 0.0 0.00 0.00 0.00 22 1007.1
20260509015026 26 90 0.0 0.0 0.00 0.00 0.00 21 1006.9
20260509014522 26 99 0.0 0.0 0.00 0.00 0.00 22 1007.2
20260509014018 26 99 0.0 0.0 0.00 0.00 0.00 21 1006.9
20260509013516 27 99 0.0 1.6 0.00 0.00 0.00 21 1006.8
20260509013011 27 90 0.0 0.0 0.00 0.00 0.00 20 1006.5
20260509012508 27 29 0.0 0.0 0.00 0.00 0.00 18 1006.7
20260509012005 28 29 0.0 0.0 0.00 0.00 0.00 18 1006.7
20260509011503 28 29 0.0 0.0 0.00 0.00 0.00 16 1006.8
20260509011000 28 29 0.0 0.0 0.00 0.00 0.00 17 1006.7
20260509010457 28 8 0.0 3.2 0.00 0.00 0.00 16 1006.7
20260509005954 29 355 3.2 4.8 0.00 0.00 0.00 16 1006.4
20260509005452 30 33 3.2 4.8 0.00 0.00 0.00 16 1006.5
20260509004952 30 57 0.0 3.2 0.00 0.00 0.00 15 1006.4
20260509004449 30 28 3.2 4.8 0.00 0.00 0.00 15 1006.3
20260509003946 30 113 3.2 8.0 0.00 0.00 0.00 14 1006.5
20260509003445 31 357 4.8 4.8 0.00 0.00 0.00 13 1006.6
20260509002941 31 54 0.0 4.8 0.00 0.00 0.00 14 1006.4
20260509002439 30 41 3.2 11.3 0.00 0.00 0.00 13 1006.2
20260509001936 31 52 8.0 14.5 0.00 0.00 0.00 13 1006.3
20260509001432 31 39 9.7 11.3 0.00 0.00 0.00 13 1006.4
20260509000929 31 52 8.0 9.7 0.00 0.00 0.00 13 1006.3
20260509000427 31 5 4.8 4.8 0.00 0.00 0.00 12 1006.3
20260508235923 32 90 0.0 4.8 0.00 0.00 0.00 13 1006.5
20260508235421 31 90 0.0 4.8 0.00 0.00 0.00 12 1006.2
20260508234917 31 50 4.8 11.3 0.00 0.00 0.00 13 1006.4
20260508234414 31 42 4.8 9.7 0.00 0.00 0.00 13 1006.2
20260508233912 31 41 6.4 11.3 0.00 0.00 0.00 12 1006.2
20260508233411 31 29 4.8 19.3 0.00 0.00 0.00 13 1006.4
20260508232908 32 10 8.0 9.7 0.00 0.00 0.00 13 1006.4
20260508232404 32 101 0.0 8.0 0.00 0.00 0.00 12 1006.2
20260508231902 32 63 1.6 4.8 0.00 0.00 0.00 12 1006.4
20260508231359 32 90 3.2 4.8 0.00 0.00 0.00 12 1006.2
20260508230856 32 286 1.6 8.0 0.00 0.00 0.00 12 1006.3
20260508230352 31 210 3.2 9.7 0.00 0.00 0.00 12 1006.4
20260508225850 32 328 0.0 4.8 0.00 0.00 0.00 12 1006.2
20260508225346 31 0 6.4 9.7 0.00 0.00 0.00 12 1006.2
20260508224844 31 19 6.4 11.3 0.00 0.00 0.00 12 1006.3
20260508224341 32 270 4.8 6.4 0.00 0.00 0.00 11 1006.3
20260508223839 31 345 6.4 20.9 0.00 0.00 0.00 13 1006.2
20260508223336 32 336 0.0 8.0 0.00 0.00 0.00 11 1006.2
20260508222833 32 325 4.8 12.9 0.00 0.00 0.00 11 1006.3
20260508222330 32 340 1.6 12.9 0.00 0.00 0.00 12 1006.4
20260508221827 32 32 3.2 4.8 0.00 0.00 0.00 12 1006.4
20260508221322 31 165 1.6 11.3 0.00 0.00 0.00 13 1006.3
20260508220819 32 0 0.0 6.4 0.00 0.00 0.00 13 1006.3
20260508220315 32 246 0.0 6.4 0.00 0.00 0.00 13 1006.4
20260508215812 32 277 0.0 8.0 0.00 0.00 0.00 13 1006.6
20260508215309 32 90 1.6 3.2 0.00 0.00 0.00 13 1006.4
20260508214806 32 229 3.2 8.0 0.00 0.00 0.00 14 1006.6
20260508214303 32 234 4.8 9.7 0.00 0.00 0.00 14 1006.4
20260508213759 32 270 4.8 4.8 0.00 0.00 0.00 13 1006.7
20260508213256 31 161 4.8 8.0 0.00 0.00 0.00 14 1006.9
20260508212753 31 203 3.2 6.4 0.00 0.00 0.00 14 1006.9
20260508212249 31 171 3.2 8.0 0.00 0.00 0.00 15 1006.9
20260508211745 31 112 4.8 6.4 0.00 0.00 0.00 15 1006.9
20260508211240 31 169 6.4 9.7 0.00 0.00 0.00 14 1006.7
20260508210738 31 155 4.8 6.4 0.00 0.00 0.00 15 1006.9
20260508210235 31 270 0.0 6.4 0.00 0.00 0.00 14 1006.9
20260508205732 30 168 3.2 9.7 0.00 0.00 0.00 15 1007.3
20260508205228 30 278 0.0 14.5 0.00 0.00 0.00 15 1007.1
20260508204725 31 241 4.8 4.8 0.00 0.00 0.00 15 1007.3
20260508204221 30 23 1.6 4.8 0.00 0.00 0.00 16 1007.3
20260508203717 29 225 8.0 9.7 0.00 0.00 0.00 17 1007.4
20260508203213 30 135 3.2 11.3 0.00 0.00 0.00 17 1007.5
20260508202710 30 168 3.2 8.0 0.00 0.00 0.00 17 1007.6
20260508202207 30 98 8.0 9.7 0.00 0.00 0.00 17 1007.7
20260508201704 30 130 6.4 14.5 0.00 0.00 0.00 18 1007.7
20260508201200 30 173 8.0 17.7 0.00 0.00 0.00 17 1007.9
20260508200657 30 240 4.8 8.0 0.00 0.00 0.00 18 1008.0
20260508200153 30 270 0.0 8.0 0.00 0.00 0.00 19 1007.9
20260508195650 30 150 3.2 9.7 0.00 0.00 0.00 19 1008.2
20260508195147 30 117 0.0 9.7 0.00 0.00 0.00 20 1008.0
20260508194643 30 297 8.0 8.0 0.00 0.00 0.00 22 1008.2
20260508194140 30 8 3.2 8.0 0.00 0.00 0.00 23 1008.2
20260508193637 28 191 4.8 11.3 0.00 0.00 0.00 23 1008.4
20260508193134 30 165 6.4 11.3 0.00 0.00 0.00 22 1008.5
20260508192630 28 49 3.2 9.7 0.00 0.00 0.00 23 1008.4
20260508192128 28 283 1.6 6.4 0.00 0.00 0.00 23 1008.7
20260508191624 28 75 1.6 6.4 0.00 0.00 0.00 24 1008.7
20260508191121 28 210 3.2 6.4 0.00 0.00 0.00 26 1008.6
20260508190619 28 166 8.0 9.7 0.00 0.00 0.00 26 1008.6
20260508190115 28 106 8.0 8.0 0.00 0.00 0.00 26 1008.8
20260508185612 28 185 4.8 8.0 0.00 0.00 0.00 26 1008.9
20260508185109 27 151 0.0 8.0 0.00 0.00 0.00 26 1008.9
20260508184606 27 156 9.7 11.3 0.00 0.00 0.00 27 1008.9
20260508184103 28 204 3.2 6.4 0.00 0.00 0.00 26 1009.1
20260508183600 27 0 6.4 6.4 0.00 0.00 0.00 27 1009.2
20260508183056 27 320 0.0 4.8 0.00 0.00 0.00 27 1009.2
20260508182552 27 189 4.8 8.0 0.00 0.00 0.00 28 1009.5
20260508182049 27 229 4.8 8.0 0.00 0.00 0.00 29 1009.5
20260508181544 27 235 6.4 8.0 0.00 0.00 0.00 30 1009.5
20260508181042 27 170 4.8 4.8 0.00 0.00 0.00 28 1009.9
20260508180538 26 41 6.4 6.4 0.00 0.00 0.00 31 1009.9
20260508180035 26 356 3.2 6.4 0.00 0.00 0.00 31 1009.9
20260508175531 26 297 4.8 8.0 0.00 0.00 0.00 32 1010.0
20260508175029 26 287 9.7 9.7 0.00 0.00 0.00 32 1010.2
20260508174526 26 254 3.2 4.8 0.00 0.00 0.00 33 1010.0
20260508174023 25 95 0.0 8.0 0.00 0.00 0.00 35 1010.1
20260508173520 25 212 3.2 6.4 0.00 0.00 0.00 36 1010.1
20260508173016 25 270 0.0 9.7 0.00 0.00 0.00 37 1010.1
20260508172513 25 353 0.0 6.4 0.00 0.00 0.00 36 1010.3
20260508172009 25 77 3.2 6.4 0.00 0.00 0.00 37 1010.6
20260508171506 25 135 0.0 4.8 0.00 0.00 0.00 37 1010.7
20260508171003 25 180 0.0 6.4 0.00 0.00 0.00 36 1010.7
20260508170500 23 168 3.2 8.0 0.00 0.00 0.00 33 1010.7
20260508165957 24 68 3.2 4.8 0.00 0.00 0.00 41 1010.6
20260508165455 24 250 4.8 8.0 0.00 0.00 0.00 43 1010.7
20260508164950 24 19 0.0 4.8 0.00 0.00 0.00 45 1010.6
20260508164448 23 108 3.2 4.8 0.00 0.00 0.00 45 1010.8
20260508163944 23 123 3.2 6.4 0.00 0.00 0.00 47 1010.7
20260508163442 23 225 3.2 8.0 0.00 0.00 0.00 48 1011.0
20260508162938 22 176 3.2 9.7 0.00 0.00 0.00 50 1010.9
20260508162436 22 148 3.2 11.3 0.00 0.00 0.00 50 1010.8
20260508161932 21 231 3.2 8.0 0.00 0.00 0.00 51 1011.0
20260508161429 21 163 8.0 9.7 0.00 0.00 0.00 53 1010.9
20260508160927 21 225 4.8 9.7 0.00 0.00 0.00 52 1011.0
20260508160426 21 203 1.6 14.5 0.00 0.00 0.00 52 1011.2
20260508155921 21 164 6.4 9.7 0.00 0.00 0.00 54 1010.9
20260508155418 20 225 3.2 11.3 0.00 0.00 0.00 56 1011.1
20260508154915 20 164 6.4 12.9 0.00 0.00 0.00 56 1011.1